Terminal Aerodrome Forecast
Issued by NWS Boston, MA

Home | Current Version | Previous Version | Text Only | Print | Product List | Glossary On
Versions: 1 2 3 4 5 6 7 8 9 10 11 12 13 14 15 16 17 18 19 20 21 22 23 24 25 26 27 28 29 30 31 32 33 34 35 36 37 38 39 40 41 42 43 44
000
FTUS41 KBOX 260306 AAA
TAFPVD
TAF AMD
KPVD 260306Z 2603/2624 30007KT P6SM BKN250
     FM260900 01005KT P6SM BKN090
     FM261400 03009KT P6SM OVC050
     FM262000 05012G21KT 3SM -SN OVC025
     FM262100 05013G23KT 1/2SM SN OVC015=

USA.gov is the U.S. government's official web portal to all federal, state and local government web resources and services.